CW0565 Weather Reports


time (UTC)temp
F
wind
direction
speed
knots
gust
knots
rain 1hr
in
rain 24hr
in
rain mn
in
humidity
%
barometer
mb
20260902193010 53 298 0.9 4.3 0.00 0.03 0.03 60 1011.2
20260902191510 53 293 1.7 6.1 0.00 0.03 0.03 58 1011.1
20260902190010 54 252 0.0 3.5 0.00 0.03 0.03 56 1011.0
20260902184510 55 251 0.0 7.8 0.00 0.03 0.03 54 1011.0
20260902183014 55 244 0.9 8.7 0.00 0.03 0.03 53 1010.9
20260902181510 56 280 5.2 8.7 0.00 0.03 0.03 51 1010.8
20260902180011 57 275 5.2 10.4 0.00 0.03 0.03 51 1010.6
20260902174510 58 288 3.5 13.9 0.00 0.03 0.03 48 1010.4
20260902173009 59 239 1.7 11.3 0.00 0.03 0.03 48 1010.3
20260902171510 59 229 7.8 12.2 0.00 0.03 0.03 48 1010.2
20260902170010 59 304 8.7 15.6 0.00 0.03 0.03 48 1010.1
20260902164511 60 273 7.8 16.5 0.00 0.03 0.03 46 1010.1
20260902163010 60 292 10.4 17.4 0.00 0.03 0.03 45 1010.1
20260902161517 61 279 7.8 16.5 0.00 0.03 0.03 44 1010.3
20260902160010 62 276 2.6 12.2 0.00 0.03 0.03 45 1010.0
20260902154523 62 274 7.8 13.9 0.00 0.03 0.03 44 1010.2
20260902153009 62 271 10.4 17.4 0.00 0.03 0.03 44 1010.2
20260902151509 63 229 6.1 12.2 0.00 0.03 0.03 44 1010.1
20260902150009 62 196 8.7 18.2 0.00 0.03 0.03 43 1010.0
20260902144526 63 276 8.7 18.2 0.00 0.03 0.03 40 1010.1
20260902143015 63 293 10.4 15.6 0.00 0.03 0.03 40 1010.0
20260902141519 63 261 9.6 16.5 0.00 0.03 0.03 43 1010.0
20260902140016 63 269 8.7 19.1 0.00 0.03 0.03 41 1009.9
20260902134523 63 236 7.8 18.2 0.00 0.03 0.03 41 1010.0
20260902133010 63 279 7.8 20.0 0.00 0.03 0.03 45 1009.8
20260902131511 63 282 7.0 17.4 0.00 0.03 0.03 47 1009.9
20260902130012 63 286 9.6 17.4 0.00 0.03 0.03 49 1010.0
20260902124509 62 281 10.4 17.4 0.00 0.03 0.03 54 1010.2
20260902123009 62 216 12.2 19.1 0.00 0.03 0.03 51 1010.0
20260902121508 63 252 10.4 16.5 0.00 0.03 0.03 51 1010.0
20260902120009 62 323 7.8 14.8 0.01 0.03 0.03 56 1009.8
20260902114510 61 252 7.8 14.8 0.01 0.03 0.03 60 1010.1
20260902113023 58 270 5.2 9.6 0.01 0.03 0.03 67 1010.3
20260902111516 59 289 7.0 20.9 0.01 0.03 0.03 68 1010.4
20260902110010 60 273 8.7 15.6 0.00 0.02 0.02 63 1010.2
20260902104510 59 305 3.5 11.3 0.00 0.02 0.02 69 1010.1
20260902103023 59 300 5.2 19.1 0.00 0.02 0.02 72 1010.4
20260902101513 59 212 7.8 14.8 0.00 0.02 0.02 67 1010.1
20260902100016 58 242 10.4 19.1 0.00 0.02 0.02 67 1010.5
20260902094510 59 266 7.8 15.6 0.00 0.02 0.02 64 1010.2
20260902093009 59 242 8.7 13.0 0.00 0.02 0.02 63 1010.2
20260902091511 60 230 5.2 10.4 0.00 0.02 0.02 63 1010.2
20260902090009 60 240 2.6 11.3 0.00 0.02 0.02 65 1010.1
20260902084513 59 249 6.1 13.9 0.00 0.02 0.02 67 1010.1
20260902083009 59 236 1.7 10.4 0.00 0.02 0.02 71 1010.1
20260902081510 57 177 6.1 11.3 0.00 0.02 0.02 74 1010.1
20260902074509 56 235 2.6 8.7 0.00 0.02 0.02 77 1010.0
20260902073009 56 234 2.6 7.8 0.00 0.02 0.02 78 1009.9
20260902071511 54 192 1.7 10.4 0.00 0.02 0.02 82 1009.8
20260902070012 53 188 1.7 7.0 0.00 0.02 0.02 87 1010.0
20260902064509 52 188 1.7 6.1 0.00 0.02 0.02 89 1010.0
20260902063010 52 171 2.6 5.2 0.00 0.02 0.02 90 1009.8
20260902061509 51 171 4.3 7.0 0.00 0.02 0.02 91 1009.6
20260902060010 51 165 2.6 5.2 0.00 0.02 0.02 91 1009.5
20260902054510 50 165 0.9 2.6 0.00 0.02 0.02 92 1009.3
20260902053011 50 165 0.9 5.2 0.00 0.02 0.02 93 1009.6
20260902051514 50 166 2.6 5.2 0.00 0.02 0.02 93 1009.7
20260902050009 50 228 0.0 0.9 0.00 0.02 0.02 92 1009.5
20260902044510 50 228 0.0 1.7 0.00 0.02 0.02 91 1009.5
20260902041511 51 228 1.7 3.5 0.00 0.02 0.02 89 1009.4
20260902040009 51 228 0.9 2.6 0.00 0.02 0.02 87 1009.5
20260902034509 52 228 1.7 3.5 0.00 0.02 0.02 85 1009.5
20260902033009 52 241 2.6 6.1 0.00 0.02 0.02 85 1009.3
20260902031510 52 298 0.9 3.5 0.00 0.02 0.02 85 1009.1
20260902030011 52 300 0.0 3.5 0.00 0.02 0.02 85 1009.1
20260902024509 53 299 0.9 7.0 0.00 0.02 0.02 85 1008.9
20260902021509 54 225 3.5 7.0 0.00 0.02 0.02 87 1009.0
20260902014527 54 221 2.6 5.2 0.00 0.02 0.02 96 1008.7
20260902013009 55 170 0.9 2.6 0.00 0.02 0.02 96 1008.4
20260902011520 55 171 0.9 3.5 0.00 0.02 0.02 96 1008.3
20260902004510 55 171 1.7 5.2 0.01 0.02 0.02 96 1008.4
20260902003012 55 176 2.6 3.5 0.02 0.02 0.02 95 1008.4
20260902001514 55 176 0.0 0.0 0.02 0.02 0.02 95 1008.3
20260902000011 55 176 0.0 0.0 0.01 0.02 0.02 94 1008.6
20260901234509 55 176 0.0 0.0 0.01 0.02 0.02 94 1008.6
20260901233010 55 176 0.0 0.0 0.00 0.01 0.01 93 1008.7
20260901231510 54 176 0.0 0.0 0.00 0.01 0.01 93 1008.8
20260901230010 54 176 0.0 0.0 0.01 0.01 0.01 92 1009.0
20260901223011 54 176 1.7 3.5 0.01 0.01 0.01 91 1009.0
20260901221510 54 176 0.9 5.2 0.01 0.01 0.01 88 1009.3
20260901220009 55 175 4.3 6.1 0.00 0.00 0.00 84 1009.5
20260901214528 55 178 3.5 5.2 0.00 0.00 0.00 81 1009.4
20260901213009 55 237 0.0 2.6 0.00 0.00 0.00 78 1009.6
20260901211510 55 236 0.0 1.7 0.00 0.00 0.00 77 1009.7
20260901210010 55 237 1.7 3.5 0.00 0.00 0.00 77 1009.9
20260901204509 55 236 0.9 2.6 0.00 0.00 0.00 76 1009.9
20260901203010 55 236 0.9 2.6 0.00 0.00 0.00 74 1010.1
20260901201510 56 236 0.0 4.3 0.00 0.00 0.00 72 1010.1
20260901200010 56 238 1.7 6.1 0.00 0.00 0.00 72 1010.2
20260901194509 56 248 1.7 7.0 0.00 0.00 0.00 71 1010.3